Regional Weather Roundup
Issued by NWS

Home | Current Version | Previous Version | Graphics & Text | Print | Product List | Glossary On
Versions: 1 2 3 4 5 6 7 8 9 10 11 12 13 14 15 16 17 18 19 20 21 22 23 24 25 26 27 28 29 30 31 32 33 34 35 36 37 38 39 40 41 42 43 44 45 46 47 48 49 50
000
ASUS43 KDTX 250501
RWRMI
MICHIGAN HOURLY REGIONAL WEATHER ROUNDUP
NATIONAL WEATHER SERVICE DETROIT/PONTIAC MI
100 AM EDT MON MAY 25 2015

NOTE: "FAIR" INDICATES FEW OR NO CLOUDS BELOW 12,000 FEET WITH NO
SIGNIFICANT WEATHER AND/OR OBSTRUCTION TO VISIBILITY.

MIZ047>049-052>055-059>063-066>070-074>076-081>083-250600-
SOUTHEAST LOWER MICHIGAN

CITY           SKY/WX    TMP DP  RH WIND       PRES   REMARKS
ADRIAN         PTCLDY    71  52  50 SW13      30.06F
ALMA           CLOUDY    63  58  83 E5        30.01F
ANN ARBOR      CLOUDY    65  53  65 S3        30.06F
BAD AXE        LGT RAIN  60  53  75 E5        30.09F
CARO           DRIZZLE   62  56  82 E6        30.05F
DETROIT CITY   CLOUDY    68  51  54 S9        30.07S
DETROIT        CLOUDY    69  55  60 S8        30.07F
FLINT          CLOUDY    68  49  50 S8        30.03F
GROSSE ILE     MOCLDY    64  57  77 S6        30.06S
HILLSDALE      CLEAR     71  52  52 S8        30.05F
HOWELL         MOCLDY    68  49  49 SE8       30.04F

CITY           SKY/WX    TMP DP  RH WIND       PRES   REMARKS
JACKSON        CLEAR     64  52  64 SE8       30.04F
LAMBERTVILLE   PTCLDY    61  55  82 S3        30.07F
LANSING        MOCLDY    69  51  52 S9        30.02F
LAPEER         MOCLDY    66  49  54 SE5       30.06S
MONROE         MOCLDY    66  55  68 S6        30.05F
MT. CLEMENS    CLOUDY    65  52  63 S12       30.05F
PONTIAC        CLOUDY    68  49  50 S7        30.06S
PORT HOPE        N/A     57  54  89 E6        30.08F
PORT HURON     CLOUDY    66  48  52 SE3       30.07F
TRI CITIES     CLOUDY    64  56  75 NE10      30.03F
MIDLAND        DRIZZLE   60  57  88 E6        30.02F
TROY           CLOUDY    71  50  47 S8        30.08S
SAGINAW HB     CLOUDY    63  57  82 E6        30.02F
$$
MIZ043>046-050>051-056>058-064>065-071>073-077>080-250600-
SOUTHWEST LOWER MICHIGAN

CITY           SKY/WX    TMP DP  RH WIND       PRES   REMARKS
BATTLE CREEK   PTCLDY    73  54  51 S16       30.01F
BENTON HARBOR  PTCLDY    72  57  59 S8        29.96S
BIG RAPIDS     RAIN      59  55  85 CALM      30.01S
COLDWATER      CLEAR     73  52  47 S8        30.03S
FREMONT        CLOUDY    60  58  94 E8        29.96F
HOLLAND        PTCLDY    69  56  62 SE8       29.96F
GRAND RAPIDS   CLOUDY    65  57  75 SE7       29.98F
IONIA          CLOUDY    66  55  69 SE8       29.99F
KALAMAZOO      PTCLDY    72  54  53 S10       30.00S
LUDINGTON      LGT RAIN  61  57  87 SE10G17   29.93F
MARSHALL       CLEAR     71  54  54 S9        30.01F
MOUNT PLEASANT CLOUDY    60  57  91 CALM      30.01F
MUSKEGON       CLOUDY    63  58  83 E8        29.95F
SOUTH HAVEN    CLEAR     71  55  56 S8        29.96S
$$
MIZ016>042-250600-
NORTHERN LOWER MICHIGAN

CITY           SKY/WX    TMP DP  RH WIND       PRES   REMARKS
ALPENA         LGT RAIN  58  57  97 S5        30.08F
BEAVER ISLAND  LGT RAIN  50  49  96 E6        30.03S
BELLAIRE       HVY RAIN  59  57  94 CALM      30.00F
CADILLAC       RAIN      58  56  94 E9        30.00F
CHARLEVOIX     HVY RAIN  57  57  99 E8        30.03F
FRANKFORT      HVY RAIN  63  56  80 E8        29.96F
GAYLORD        RAIN      57  57 100 SE3       30.05F FOG
HARBOR SPRINGS RAIN      56  55  97 NE5       30.03F
HOUGHTON LAKE  LGT RAIN  57  56  96 E10       30.03F FOG
MANISTEE       CLOUDY    61  55  82 E7        29.95F
OSCODA         LGT RAIN  60  58  95 SE3       30.09F
PELLSTON       LGT RAIN  56  54  93 CALM      30.05F FOG
ROGERS CITY    DRIZZLE   59  57  93 CALM      30.07F
TRAVERSE CITY  LGT RAIN  59  57  93 N6        29.98F FOG
$$
MIZ007>008-015-250600-
EASTERN UPPER MICHIGAN

CITY           SKY/WX    TMP DP  RH WIND       PRES   REMARKS
KINROSS        CLOUDY    55  52  88 S3        30.05F
MACKINAC ISLAN RAIN      53  53 100 CALM      30.05F
NEWBERRY       LGT RAIN  55  53  94 SW10      30.03F
S. S. MARIE    CLOUDY    59  49  69 CALM      30.05S
$$
MIZ004>006-011>014-085-250600-
CENTRAL UPPER MICHIGAN

CITY           SKY/WX    TMP DP  RH WIND       PRES   REMARKS
MANISTIQUE     LGT RAIN  51  50  97 CALM      30.02F
ESCANABA       CLOUDY    54  52  94 CALM      29.99S
MENOMINEE      CLOUDY    54  52  94 NE8       29.95F
SAWYER-GWINN   LGT RAIN  56  54  94 S7        29.99F
$$
MIZ001>003-009>011-084-250600-
WESTERN UPPER MICHIGAN

CITY           SKY/WX    TMP DP  RH WIND       PRES   REMARKS
IRON MOUNTAIN  LGT RAIN  56  54  93 E3        29.96F FOG
HOUGHTON       CLOUDY    57  44  62 CALM      29.93F
COPPER HARBOR    N/A     62  41  46 SW12G17   29.91F
IRONWOOD       CLOUDY    57  57 100 SE8       29.89F
$$

ABBREVIATIONS USED IN REMARKS
   TC - TEMPERATURE IN CELSIUS
  WCI - WIND CHILL INDEX
   HX - HEAT INDEX
  VSB - VISIBILITY




USA.gov is the U.S. government's official web portal to all federal, state and local government web resources and services.